Time,TemperatureF,DewpointF,PressureIn,WindDirection,WindDirectionDegrees,WindSpeedMPH,WindSpeedGustMPH,Humidity,HourlyPrecipIn,Conditions,Clouds,dailyrainin,SoftwareType,DateUTC
2013-02-17 00:02:00,30.0,15.0,-100.00,West,280,6.0,14.0,54,-99.99,,,-99.99,,2013-02-17 05:02:00,
2013-02-17 00:12:00,29.0,15.0,-100.00,WNW,300,5.0,10.0,54,-99.99,,,-99.99,,2013-02-17 05:12:00,
2013-02-17 00:22:00,30.0,14.0,-100.00,NW,325,7.0,19.0,52,-99.99,,,-99.99,,2013-02-17 05:22:00,
2013-02-17 00:33:00,30.0,14.0,-100.00,West,280,11.0,18.0,50,-99.99,,,-99.99,,2013-02-17 05:33:00,
2013-02-17 00:42:00,30.0,14.0,-100.00,WNW,290,8.0,16.0,51,-99.99,,,-99.99,,2013-02-17 05:42:00,
2013-02-17 00:52:00,30.0,13.0,-100.00,WNW,300,6.0,12.0,49,-99.99,,,-99.99,,2013-02-17 05:52:00,
2013-02-17 01:02:00,29.0,13.0,-100.00,WNW,300,4.0,14.0,49,-99.99,,,-99.99,,2013-02-17 06:02:00,
2013-02-17 01:11:00,30.0,12.0,-100.00,NW,315,11.0,18.0,47,-99.99,,,-99.99,,2013-02-17 06:11:00,
2013-02-17 01:21:00,30.0,12.0,-100.00,NW,325,11.0,20.0,47,-99.99,,,-99.99,,2013-02-17 06:21:00,
2013-02-17 01:32:00,29.0,12.0,-100.00,WNW,295,8.0,16.0,47,-99.99,,,-99.99,,2013-02-17 06:32:00,
2013-02-17 01:42:00,29.0,12.0,-100.00,NNW,340,8.0,16.0,47,-99.99,,,-99.99,,2013-02-17 06:42:00,
2013-02-17 01:51:00,29.0,11.0,-100.00,West,280,2.0,11.0,47,-99.99,,,-99.99,,2013-02-17 06:51:00,
2013-02-17 02:01:00,29.0,11.0,-100.00,NW,325,4.0,7.0,47,-99.99,,,-99.99,,2013-02-17 07:01:00,
2013-02-17 02:11:00,29.0,11.0,-100.00,West,265,7.0,17.0,47,-99.99,,,-99.99,,2013-02-17 07:11:00,
2013-02-17 02:21:00,29.0,11.0,-100.00,NW,310,7.0,12.0,46,-99.99,,,-99.99,,2013-02-17 07:21:00,
2013-02-17 02:32:00,29.0,11.0,-100.00,NNW,335,9.0,16.0,46,-99.99,,,-99.99,,2013-02-17 07:32:00,
2013-02-17 02:42:00,29.0,10.0,-100.00,NW,325,11.0,18.0,45,-99.99,,,-99.99,,2013-02-17 07:42:00,
2013-02-17 02:51:00,28.0,10.0,-100.00,NW,315,9.0,17.0,45,-99.99,,,-99.99,,2013-02-17 07:51:00,
2013-02-17 03:01:00,29.0,10.0,-100.00,NNW,345,14.0,26.0,45,-99.99,,,-99.99,,2013-02-17 08:01:00,
2013-02-17 03:11:00,28.0,9.0,-100.00,WNW,285,4.0,21.0,45,-99.99,,,-99.99,,2013-02-17 08:11:00,
2013-02-17 03:22:00,28.0,9.0,-100.00,WNW,285,6.0,16.0,45,-99.99,,,-99.99,,2013-02-17 08:22:00,
2013-02-17 03:32:00,28.0,9.0,-100.00,NW,315,11.0,21.0,45,-99.99,,,-99.99,,2013-02-17 08:32:00,
2013-02-17 03:42:00,28.0,9.0,-100.00,NW,310,6.0,21.0,45,-99.99,,,-99.99,,2013-02-17 08:42:00,
2013-02-17 03:52:00,28.0,10.0,-100.00,NW,310,7.0,21.0,46,-99.99,,,-99.99,,2013-02-17 08:52:00,
2013-02-17 04:02:00,28.0,10.0,-100.00,NW,310,7.0,18.0,46,-99.99,,,-99.99,,2013-02-17 09:02:00,
2013-02-17 04:11:00,28.0,10.0,-100.00,WNW,295,6.0,19.0,46,-99.99,,,-99.99,,2013-02-17 09:11:00,
2013-02-17 04:21:00,27.0,9.0,-100.00,WNW,285,6.0,21.0,46,-99.99,,,-99.99,,2013-02-17 09:21:00,
2013-02-17 04:32:00,27.0,9.0,-100.00,NW,305,7.0,19.0,46,-99.99,,,-99.99,,2013-02-17 09:32:00,
2013-02-17 04:42:00,28.0,10.0,-100.00,WNW,300,12.0,24.0,46,-99.99,,,-99.99,,2013-02-17 09:42:00,
2013-02-17 04:51:00,27.0,9.0,-100.00,WNW,290,7.0,28.0,46,-99.99,,,-99.99,,2013-02-17 09:51:00,
2013-02-17 05:01:00,27.0,9.0,-100.00,WNW,300,9.0,19.0,46,-99.99,,,-99.99,,2013-02-17 10:01:00,
2013-02-17 05:11:00,27.0,9.0,-100.00,NW,305,11.0,19.0,46,-99.99,,,-99.99,,2013-02-17 10:11:00,
2013-02-17 05:22:00,27.0,9.0,-100.00,NW,320,6.0,14.0,47,-99.99,,,-99.99,,2013-02-17 10:22:00,
2013-02-17 05:32:00,27.0,9.0,-100.00,WNW,295,4.0,21.0,47,-99.99,,,-99.99,,2013-02-17 10:32:00,
2013-02-17 05:42:00,27.0,9.0,-100.00,WNW,290,6.0,13.0,47,-99.99,,,-99.99,,2013-02-17 10:42:00,
2013-02-17 05:52:00,27.0,9.0,-100.00,WNW,290,7.0,23.0,47,-99.99,,,-99.99,,2013-02-17 10:52:00,
2013-02-17 06:01:00,27.0,10.0,-100.00,NW,305,9.0,20.0,48,-99.99,,,-99.99,,2013-02-17 11:01:00,
2013-02-17 06:11:00,27.0,10.0,-100.00,WNW,300,6.0,13.0,48,-99.99,,,-99.99,,2013-02-17 11:11:00,
2013-02-17 06:22:00,27.0,9.0,-100.00,West,275,8.0,14.0,47,-99.99,,,-99.99,,2013-02-17 11:22:00,
2013-02-17 06:32:00,27.0,9.0,-100.00,West,280,6.0,12.0,47,-99.99,,,-99.99,,2013-02-17 11:32:00,
2013-02-17 06:42:00,27.0,9.0,-100.00,West,280,6.0,14.0,47,-99.99,,,-99.99,,2013-02-17 11:42:00,
2013-02-17 06:52:00,27.0,9.0,-100.00,WNW,300,6.0,16.0,47,-99.99,,,-99.99,,2013-02-17 11:52:00,
2013-02-17 07:03:00,27.0,9.0,-100.00,WNW,295,7.0,16.0,46,-99.99,,,-99.99,,2013-02-17 12:03:00,
2013-02-17 07:11:00,27.0,9.0,-100.00,WNW,295,4.0,18.0,47,-99.99,,,-99.99,,2013-02-17 12:11:00,
2013-02-17 07:22:00,26.0,9.0,-100.00,West,280,4.0,10.0,47,-99.99,,,-99.99,,2013-02-17 12:22:00,
2013-02-17 07:32:00,27.0,9.0,-100.00,WNW,300,9.0,16.0,47,-99.99,,,-99.99,,2013-02-17 12:32:00,
2013-02-17 07:42:00,27.0,9.0,-100.00,WNW,290,4.0,17.0,46,-99.99,,,-99.99,,2013-02-17 12:42:00,
2013-02-17 07:52:00,27.0,10.0,-100.00,WNW,285,11.0,22.0,47,-99.99,,,-99.99,,2013-02-17 12:52:00,
2013-02-17 08:02:00,27.0,10.0,-100.00,WNW,285,2.0,11.0,47,-99.99,,,-99.99,,2013-02-17 13:02:00,
2013-02-17 08:12:00,28.0,10.0,-100.00,NW,315,8.0,16.0,47,-99.99,,,-99.99,,2013-02-17 13:12:00,
2013-02-17 08:22:00,29.0,11.0,-100.00,WNW,290,5.0,11.0,46,-99.99,,,-99.99,,2013-02-17 13:22:00,
2013-02-17 08:32:00,29.0,11.0,-100.00,WNW,290,5.0,11.0,46,-99.99,,,-99.99,,2013-02-17 13:32:00,
2013-02-17 08:42:00,30.0,11.0,-100.00,West,270,9.0,18.0,46,-99.99,,,-99.99,,2013-02-17 13:42:00,
2013-02-17 08:51:00,30.0,12.0,-100.00,West,275,5.0,16.0,46,-99.99,,,-99.99,,2013-02-17 13:51:00,
2013-02-17 09:01:00,31.0,12.0,-100.00,WNW,290,8.0,14.0,45,-99.99,,,-99.99,,2013-02-17 14:01:00,
2013-02-17 09:11:00,32.0,13.0,-100.00,WNW,300,10.0,17.0,45,-99.99,,,-99.99,,2013-02-17 14:11:00,
2013-02-17 09:22:00,32.0,13.0,-100.00,WNW,285,9.0,15.0,45,-99.99,,,-99.99,,2013-02-17 14:22:00,
2013-02-17 09:32:00,33.0,14.0,-100.00,West,280,6.0,17.0,44,-99.99,,,-99.99,,2013-02-17 14:32:00,
2013-02-17 09:42:00,34.0,14.0,-100.00,WNW,295,5.0,14.0,44,-99.99,,,-99.99,,2013-02-17 14:42:00,
2013-02-17 09:52:00,34.0,14.0,-100.00,NW,305,11.0,21.0,43,-99.99,,,-99.99,,2013-02-17 14:52:00,
2013-02-17 10:02:00,34.0,14.0,-100.00,WNW,295,7.0,26.0,43,-99.99,,,-99.99,,2013-02-17 15:02:00,
2013-02-17 10:11:00,34.0,13.0,-100.00,NW,315,12.0,29.0,42,-99.99,,,-99.99,,2013-02-17 15:11:00,
2013-02-17 10:22:00,35.0,14.0,-100.00,West,280,11.0,26.0,42,-99.99,,,-99.99,,2013-02-17 15:22:00,
2013-02-17 10:32:00,34.0,14.0,-100.00,WNW,290,15.0,26.0,42,-99.99,,,-99.99,,2013-02-17 15:32:00,
2013-02-17 10:42:00,35.0,14.0,-100.00,West,275,14.0,22.0,41,-99.99,,,-99.99,,2013-02-17 15:42:00,
2013-02-17 10:52:00,35.0,14.0,-100.00,WNW,290,11.0,21.0,41,-99.99,,,-99.99,,2013-02-17 15:52:00,
2013-02-17 11:01:00,35.0,13.0,-100.00,WNW,290,17.0,32.0,41,-99.99,,,-99.99,,2013-02-17 16:01:00,
2013-02-17 11:12:00,36.0,14.0,-100.00,West,275,11.0,29.0,40,-99.99,,,-99.99,,2013-02-17 16:12:00,
2013-02-17 11:22:00,37.0,14.0,-100.00,WNW,285,11.0,29.0,39,-99.99,,,-99.99,,2013-02-17 16:22:00,
2013-02-17 11:32:00,37.0,14.0,-100.00,West,275,11.0,22.0,39,-99.99,,,-99.99,,2013-02-17 16:32:00,
2013-02-17 11:42:00,38.0,14.0,-100.00,NW,325,9.0,21.0,38,-99.99,,,-99.99,,2013-02-17 16:42:00,
2013-02-17 11:52:00,38.0,15.0,-100.00,West,280,11.0,19.0,38,-99.99,,,-99.99,,2013-02-17 16:52:00,
2013-02-17 12:02:00,38.0,14.0,-100.00,NW,320,10.0,21.0,37,-99.99,,,-99.99,,2013-02-17 17:02:00,
2013-02-17 12:11:00,39.0,16.0,-100.00,NNW,335,5.0,18.0,38,-99.99,,,-99.99,,2013-02-17 17:11:00,
2013-02-17 12:21:00,40.0,15.0,-100.00,NW,305,8.0,23.0,37,-99.99,,,-99.99,,2013-02-17 17:21:00,
2013-02-17 12:32:00,41.0,16.0,-100.00,West,270,8.0,14.0,36,-99.99,,,-99.99,,2013-02-17 17:32:00,
2013-02-17 12:42:00,40.0,15.0,-100.00,WNW,295,11.0,24.0,36,-99.99,,,-99.99,,2013-02-17 17:42:00,
2013-02-17 12:52:00,40.0,15.0,-100.00,West,280,9.0,19.0,35,-99.99,,,-99.99,,2013-02-17 17:52:00,
2013-02-17 13:02:00,41.0,16.0,-100.00,West,270,8.0,16.0,35,-99.99,,,-99.99,,2013-02-17 18:02:00,
2013-02-17 13:11:00,42.0,15.0,-100.00,NW,320,4.0,19.0,34,-99.99,,,-99.99,,2013-02-17 18:11:00,
2013-02-17 13:22:00,42.0,16.0,-100.00,West,280,9.0,21.0,34,-99.99,,,-99.99,,2013-02-17 18:22:00,
2013-02-17 13:33:00,42.0,15.0,-100.00,WNW,295,9.0,20.0,33,-99.99,,,-99.99,,2013-02-17 18:33:00,
2013-02-17 13:42:00,42.0,15.0,-100.00,NW,315,11.0,19.0,33,-99.99,,,-99.99,,2013-02-17 18:42:00,
2013-02-17 13:52:00,42.0,15.0,-100.00,NW,315,11.0,19.0,33,-99.99,,,-99.99,,2013-02-17 18:52:00,
2013-02-17 14:02:00,43.0,15.0,-100.00,NNW,330,11.0,21.0,32,-99.99,,,-99.99,,2013-02-17 19:02:00,
2013-02-17 14:11:00,44.0,15.0,-100.00,West,270,8.0,20.0,31,-99.99,,,-99.99,,2013-02-17 19:11:00,
2013-02-17 14:22:00,43.0,14.0,-100.00,WNW,300,13.0,21.0,31,-99.99,,,-99.99,,2013-02-17 19:22:00,
2013-02-17 14:32:00,44.0,15.0,-100.00,NNW,335,9.0,19.0,31,-99.99,,,-99.99,,2013-02-17 19:32:00,
2013-02-17 14:42:00,45.0,16.0,-100.00,WNW,300,6.0,18.0,31,-99.99,,,-99.99,,2013-02-17 19:42:00,
2013-02-17 14:52:00,45.0,16.0,-100.00,WNW,300,6.0,18.0,31,-99.99,,,-99.99,,2013-02-17 19:52:00,
2013-02-17 15:02:00,44.0,14.0,-100.00,WNW,300,10.0,22.0,30,-99.99,,,-99.99,,2013-02-17 20:02:00,
2013-02-17 15:11:00,45.0,15.0,-100.00,NW,305,11.0,20.0,30,-99.99,,,-99.99,,2013-02-17 20:11:00,
2013-02-17 15:22:00,45.0,15.0,-100.00,NW,315,9.0,20.0,30,-99.99,,,-99.99,,2013-02-17 20:22:00,
2013-02-17 15:32:00,45.0,16.0,-100.00,NW,325,5.0,17.0,30,-99.99,,,-99.99,,2013-02-17 20:32:00,
2013-02-17 15:42:00,45.0,15.0,-100.00,NW,315,10.0,18.0,29,-99.99,,,-99.99,,2013-02-17 20:42:00,
2013-02-17 15:52:00,45.0,15.0,-100.00,WNW,290,8.0,26.0,29,-99.99,,,-99.99,,2013-02-17 20:52:00,
2013-02-17 16:02:00,46.0,15.0,-100.00,WNW,295,10.0,15.0,28,-99.99,,,-99.99,,2013-02-17 21:02:00,
2013-02-17 16:11:00,45.0,14.0,-100.00,WNW,285,11.0,26.0,28,-99.99,,,-99.99,,2013-02-17 21:11:00,
2013-02-17 16:21:00,44.0,13.0,-100.00,WNW,295,18.0,25.0,28,-99.99,,,-99.99,,2013-02-17 21:21:00,
2013-02-17 16:32:00,45.0,14.0,-100.00,NNW,330,8.0,26.0,28,-99.99,,,-99.99,,2013-02-17 21:32:00,
2013-02-17 16:42:00,44.0,13.0,-100.00,NW,315,11.0,26.0,28,-99.99,,,-99.99,,2013-02-17 21:42:00,
2013-02-17 16:52:00,44.0,13.0,-100.00,West,265,11.0,21.0,28,-99.99,,,-99.99,,2013-02-17 21:52:00,
2013-02-17 17:01:00,44.0,13.0,-100.00,NW,310,11.0,21.0,27,-99.99,,,-99.99,,2013-02-17 22:01:00,
2013-02-17 17:12:00,44.0,13.0,-100.00,NW,315,10.0,22.0,28,-99.99,,,-99.99,,2013-02-17 22:12:00,
2013-02-17 17:22:00,44.0,12.0,-100.00,WNW,285,4.0,22.0,27,-99.99,,,-99.99,,2013-02-17 22:22:00,
2013-02-17 17:32:00,43.0,12.0,-100.00,North,0,10.0,19.0,28,-99.99,,,-99.99,,2013-02-17 22:32:00,
2013-02-17 17:42:00,43.0,12.0,-100.00,NW,315,9.0,14.0,28,-99.99,,,-99.99,,2013-02-17 22:42:00,
2013-02-17 17:52:00,42.0,12.0,-100.00,NW,315,8.0,18.0,28,-99.99,,,-99.99,,2013-02-17 22:52:00,
2013-02-17 18:02:00,42.0,11.0,-100.00,NW,315,7.0,14.0,28,-99.99,,,-99.99,,2013-02-17 23:02:00,
2013-02-17 18:11:00,41.0,11.0,-100.00,NW,320,8.0,19.0,28,-99.99,,,-99.99,,2013-02-17 23:11:00,
2013-02-17 18:21:00,41.0,10.0,-100.00,NNW,335,9.0,16.0,28,-99.99,,,-99.99,,2013-02-17 23:21:00,
2013-02-17 18:32:00,40.0,11.0,-100.00,NW,320,11.0,16.0,29,-99.99,,,-99.99,,2013-02-17 23:32:00,
2013-02-17 18:42:00,40.0,10.0,-100.00,NNW,335,9.0,19.0,29,-99.99,,,-99.99,,2013-02-17 23:42:00,
2013-02-17 18:52:00,39.0,10.0,-100.00,North,0,5.0,16.0,29,-99.99,,,-99.99,,2013-02-17 23:52:00,
2013-02-17 19:02:00,39.0,10.0,-100.00,NNW,345,9.0,14.0,29,-99.99,,,-99.99,,2013-02-18 00:02:00,
2013-02-17 19:12:00,39.0,10.0,-100.00,North,350,6.0,10.0,30,-99.99,,,-99.99,,2013-02-18 00:12:00,
2013-02-17 19:22:00,39.0,10.0,-100.00,NNW,330,7.0,12.0,30,-99.99,,,-99.99,,2013-02-18 00:22:00,
2013-02-17 19:32:00,39.0,11.0,-100.00,NW,320,8.0,18.0,31,-99.99,,,-99.99,,2013-02-18 00:32:00,
2013-02-17 19:42:00,38.0,10.0,-100.00,NNW,340,7.0,11.0,31,-99.99,,,-99.99,,2013-02-18 00:42:00,
2013-02-17 19:52:00,38.0,10.0,-100.00,NNW,330,5.0,14.0,31,-99.99,,,-99.99,,2013-02-18 00:52:00,
2013-02-17 20:01:00,37.0,10.0,-100.00,NNW,340,8.0,12.0,32,-99.99,,,-99.99,,2013-02-18 01:01:00,
2013-02-17 20:12:00,37.0,10.0,-100.00,NW,320,10.0,16.0,32,-99.99,,,-99.99,,2013-02-18 01:12:00,
2013-02-17 20:21:00,37.0,10.0,-100.00,NNW,330,7.0,13.0,32,-99.99,,,-99.99,,2013-02-18 01:21:00,
2013-02-17 20:32:00,37.0,10.0,-100.00,NNW,330,7.0,13.0,32,-99.99,,,-99.99,,2013-02-18 01:32:00,
2013-02-17 20:42:00,36.0,10.0,-100.00,NNW,340,4.0,6.0,33,-99.99,,,-99.99,,2013-02-18 01:42:00,
2013-02-17 20:51:00,36.0,10.0,-100.00,NNW,330,4.0,7.0,33,-99.99,,,-99.99,,2013-02-18 01:51:00,
2013-02-17 21:02:00,35.0,10.0,-100.00,NNW,340,4.0,7.0,34,-99.99,,,-99.99,,2013-02-18 02:02:00,
2013-02-17 21:11:00,35.0,10.0,-100.00,NNW,340,5.0,7.0,34,-99.99,,,-99.99,,2013-02-18 02:11:00,
2013-02-17 21:22:00,36.0,10.0,-100.00,NNW,330,7.0,11.0,34,-99.99,,,-99.99,,2013-02-18 02:22:00,
2013-02-17 21:32:00,36.0,10.0,-100.00,NW,310,2.0,8.0,34,-99.99,,,-99.99,,2013-02-18 02:32:00,
2013-02-17 21:42:00,35.0,10.0,-100.00,SSW,205,1.0,5.0,36,-99.99,,,-99.99,,2013-02-18 02:42:00,
2013-02-17 21:52:00,32.0,10.0,-100.00,South,175,1.0,4.0,39,-99.99,,,-99.99,,2013-02-18 02:52:00,
2013-02-17 22:02:00,32.0,10.0,-100.00,SE,145,0.0,4.0,39,-99.99,,,-99.99,,2013-02-18 03:02:00,
2013-02-17 22:11:00,31.0,10.0,-100.00,ENE,60,0.0,2.0,40,-99.99,,,-99.99,,2013-02-18 03:11:00,
2013-02-17 22:22:00,32.0,10.0,-100.00,West,280,2.0,5.0,40,-99.99,,,-99.99,,2013-02-18 03:22:00,
2013-02-17 22:32:00,31.0,10.0,-100.00,ESE,120,1.0,4.0,41,-99.99,,,-99.99,,2013-02-18 03:32:00,
2013-02-17 22:42:00,30.0,11.0,-100.00,SSW,205,1.0,3.0,44,-99.99,,,-99.99,,2013-02-18 03:42:00,
2013-02-17 22:52:00,30.0,11.0,-100.00,SW,230,1.0,2.0,45,-99.99,,,-99.99,,2013-02-18 03:52:00,
2013-02-17 23:01:00,30.0,11.0,-100.00,NW,325,2.0,4.0,45,-99.99,,,-99.99,,2013-02-18 04:01:00,
2013-02-17 23:11:00,30.0,11.0,-100.00,NW,310,1.0,4.0,45,-99.99,,,-99.99,,2013-02-18 04:11:00,
2013-02-17 23:21:00,28.0,12.0,-100.00,SE,140,0.0,2.0,49,-99.99,,,-99.99,,2013-02-18 04:21:00,
2013-02-17 23:32:00,27.0,12.0,-100.00,SE,140,0.0,3.0,51,-99.99,,,-99.99,,2013-02-18 04:32:00,
2013-02-17 23:42:00,27.0,12.0,-100.00,WSW,240,1.0,2.0,52,-99.99,,,-99.99,,2013-02-18 04:42:00,
2013-02-17 23:52:00,27.0,12.0,-100.00,West,270,2.0,4.0,53,-99.99,,,-99.99,,2013-02-18 04:52:00,